Terug naar catalogus

STARLINK-1569

ActiefCommunicatieVLEO
NORAD 46039·PAYLOAD·🇺🇸 United States

Gelanceerd Aug 7, 2020 vanaf Cape Canaveral Space Force Station

Loading…

Volgende Passages (komende 24 uur)

TLE

VersSource: CelesTrak SupGP

Epoch: Sep 15, 2026, 01:34 UTC

1 46039C 20055N   26258.06576389  .00053499  00000+0  17200-2 0  2580
2 46039  53.1581 326.1025 0001135  90.2529 181.0406 15.31683399    12

Volg STARLINK-1569 in realtime met AllMySat

Download on the App Store